Date,TemperatureHighF,TemperatureAvgF,TemperatureLowF,DewpointHighF,DewpointAvgF,DewpointLowF,HumidityHigh,HumidityAvg,HumidityLow,PressureMaxIn,PressureMinIn,WindSpeedMaxMPH,WindSpeedAvgMPH,GustSpeedMaxMPH,PrecipitationSumIn
2013-1-1,38.7,34.2,25.3,29.0,22.3,12.0,72,62,53,29.74,29.57,7,3,45,0.00
2013-1-2,32.9,25.6,19.8,17.8,12.9,8.9,66,58,51,29.90,29.73,6,2,14,0.00
2013-1-3,27.1,21.2,13.1,15.1,6.1,-1.5,61,52,35,29.99,29.81,4,2,12,0.00
2013-1-4,39.4,32.0,24.6,26.1,21.5,13.8,72,65,57,29.84,29.64,5,2,10,0.00
2013-1-5,42.8,34.7,27.0,26.6,22.8,19.5,75,62,46,30.05,29.68,5,2,12,0.00
2013-1-6,42.6,34.9,27.3,33.2,28.2,20.4,85,77,65,30.00,29.75,3,0,7,0.03
2013-1-7,42.4,34.5,25.5,32.8,24.9,19.6,82,69,49,30.20,29.78,4,1,9,0.00
2013-1-8,47.5,36.8,24.3,33.0,28.5,18.7,86,72,56,30.24,30.11,5,1,12,0.00
2013-1-9,44.8,37.2,26.1,37.6,31.0,21.3,84,78,69,30.24,29.83,5,1,12,0.00
2013-1-10,47.3,41.9,33.3,34.6,26.7,23.5,72,55,41,30.33,29.89,8,3,14,0.00
2013-1-11,41.4,36.4,28.8,38.2,28.7,21.9,89,74,65,30.36,30.00,2,0,4,0.17
2013-1-12,46.2,43.8,41.2,42.9,40.7,38.2,90,89,88,30.04,29.92,2,0,4,0.08
2013-1-13,52.7,47.9,44.4,50.2,45.1,41.7,93,90,86,30.01,29.78,2,1,6,0.03
2013-1-14,60.3,52.5,43.5,54.8,44.4,32.1,93,76,52,30.06,29.76,4,2,10,0.00
2013-1-15,45.0,41.0,38.7,35.2,31.5,27.0,83,69,57,30.17,30.00,2,0,6,0.14
2013-1-16,39.0,36.3,34.5,33.7,31.6,27.1,88,83,63,30.04,29.61,2,0,5,0.22
2013-1-17,43.5,38.8,33.6,33.4,29.3,20.0,87,69,54,29.89,29.67,4,2,9,0.03
2013-1-18,35.4,27.7,24.4,20.8,8.1,1.6,56,43,32,30.27,29.82,6,2,12,0.00
2013-1-19,48.7,39.5,25.3,34.7,27.6,10.1,75,63,50,30.21,29.72,6,2,14,0.00
2013-1-20,54.5,44.6,32.2,36.3,29.6,11.8,75,57,35,29.75,29.45,8,4,20,0.00
2013-1-21,45.3,30.4,25.5,23.4,14.9,9.3,81,54,36,29.97,29.55,5,1,10,0.00
2013-1-22,28.6,24.1,17.1,23.2,10.5,0.7,81,58,38,29.89,29.56,7,3,14,0.00
2013-1-23,18.9,14.8,12.0,5.2,-1.2,-5.9,61,49,41,30.01,29.87,64,4,64,0.00
2013-1-24,22.1,15.0,8.8,-1.2,-3.9,-6.0,52,43,33,30.03,29.89,6,4,18,0.00
2013-1-25,28.2,20.6,13.1,13.8,0.6,-5.4,71,42,29,30.16,29.85,6,2,16,0.00
2013-1-26,25.0,18.9,15.3,14.1,9.8,7.3,75,68,51,29.91,29.78,4,1,10,0.00
2013-1-27,32.2,25.7,16.2,7.2,5.3,3.5,59,42,31,30.26,30.09,5,2,10,0.00
2013-1-28,36.1,30.2,24.3,29.2,16.7,4.2,85,59,39,30.26,29.81,2,0,5,0.00
2013-1-29,37.6,34.9,31.3,33.4,30.6,27.0,87,84,81,30.03,29.80,2,0,5,0.14
2013-1-30,58.5,49.5,36.7,55.7,46.7,32.9,93,90,86,29.96,29.35,6,2,16,0.08
2013-1-31,57.2,49.2,33.4,55.3,37.4,15.3,94,66,39,29.45,28.89,9,5,22,0.61
2013-2-1,36.3,30.0,23.2,17.0,11.8,6.9,54,47,35,29.98,29.45,7,4,17,0.00
2013-2-2,33.4,29.0,22.3,17.7,12.4,6.9,60,50,41,30.11,29.84,4,2,14,0.00
2013-2-3,35.6,29.5,25.2,22.3,19.8,16.3,75,67,57,29.84,29.55,3,1,8,0.00
2013-2-4,34.2,28.9,25.5,21.3,13.5,9.0,74,53,37,29.77,29.53,7,3,16,0.00
2013-2-5,28.9,27.5,26.1,23.5,16.9,11.4,81,65,52,29.88,29.73,2,1,6,0.00
2013-2-6,41.9,33.7,28.4,29.5,21.7,8.4,82,63,40,30.15,29.71,5,2,12,0.03
2013-2-7,34.3,28.6,22.8,13.4,8.6,6.4,57,43,32,30.36,30.12,3,1,10,0.00
2013-2-8,34.7,32.0,26.2,31.5,26.2,13.1,92,79,55,30.26,29.39,5,2,12,0.00
2013-2-9,29.3,22.9,16.7,23.7,16.1,8.1,91,75,68,30.01,29.52,0,0,0,0.00
2013-2-10,35.8,24.8,14.9,23.9,15.2,6.4,91,67,49,30.25,29.52,0,0,0,0.06
2013-2-11,44.1,34.8,19.6,41.9,31.6,14.1,92,88,79,30.15,29.45,1,0,7,0.39
2013-2-12,46.8,40.5,32.9,39.9,31.9,25.2,92,73,53,29.72,29.44,5,0,12,0.00
2013-2-13,43.0,36.7,30.7,28.6,26.2,22.1,74,66,53,29.75,29.50,1,0,5,0.00
2013-2-14,44.4,36.7,30.0,29.8,26.1,22.8,84,67,44,29.83,29.51,1,0,7,0.06
2013-2-15,48.4,38.8,28.6,38.0,32.5,22.8,88,78,65,29.90,29.75,2,0,7,0.00
2013-2-16,37.9,36.2,34.2,33.7,31.4,30.1,89,83,77,29.80,29.70,2,0,9,0.00
2013-2-22,34.9,34.1,33.1,25.9,25.4,24.4,72,70,67,30.12,30.03,0,0,0,0.00
2013-2-23,41.9,37.6,34.3,33.6,30.5,25.2,89,76,65,30.11,29.67,1,0,5,0.36
2013-2-24,40.1,37.0,33.4,37.4,33.7,29.7,90,88,85,29.77,29.50,4,1,15,0.53
2013-2-25,44.8,39.4,32.7,33.2,31.3,29.0,87,73,60,30.05,29.56,14,0,14,0.08
2013-2-26,47.5,40.9,36.9,35.7,31.4,27.3,82,69,54,30.18,29.93,2,0,7,0.00
2013-2-27,45.0,42.7,38.3,42.0,39.6,31.6,91,89,76,29.93,29.39,8,2,19,1.33
2013-2-28,50.4,43.2,37.8,42.6,38.3,34.5,90,83,71,29.53,29.34,0,0,5,0.00
2013-3-1,50.0,43.1,38.7,36.6,31.7,27.1,84,65,47,29.52,29.34,3,0,9,0.00
2013-3-2,46.6,41.2,36.9,30.3,28.2,26.2,66,60,51,29.56,29.43,1,0,6,0.00
2013-3-3,49.1,40.1,35.4,31.6,28.2,25.5,76,63,48,29.50,29.37,2,0,7,0.00
2013-3-4,44.2,37.8,31.1,28.6,24.0,21.4,76,58,46,29.55,29.42,6,2,13,0.00
2013-3-5,48.7,40.1,33.3,31.3,27.2,22.7,76,60,49,29.87,29.55,3,1,8,0.00
2013-3-6,44.1,38.8,33.6,36.0,33.1,27.5,87,80,64,29.91,29.76,7,3,17,0.09
2013-3-7,37.2,34.7,32.4,33.9,31.5,29.5,90,88,82,29.81,29.71,6,3,17,0.61
2013-3-8,39.0,34.4,31.3,33.0,29.7,25.9,90,83,63,29.92,29.68,5,2,15,0.06
2013-3-9,46.2,38.9,32.4,30.0,26.7,21.8,81,62,49,30.12,29.90,4,1,12,0.33
2013-3-10,47.7,39.2,32.2,34.9,31.6,27.5,85,75,58,30.24,30.10,2,0,7,0.00
2013-3-11,52.7,44.1,38.5,43.2,37.9,33.3,86,79,68,30.13,29.95,2,0,8,0.00
2013-3-12,55.6,50.1,43.3,51.2,46.7,39.7,92,88,81,29.96,29.54,5,1,10,0.69
2013-3-13,53.1,47.5,37.8,49.0,34.0,24.3,92,62,38,29.65,29.54,3,0,10,0.03
2013-3-14,40.5,35.3,27.5,26.6,18.7,8.1,72,51,37,29.65,29.56,6,2,16,0.00
2013-3-15,45.5,35.6,25.7,27.5,16.8,10.4,70,48,29,29.73,29.47,2,0,10,0.00
2013-3-16,45.5,38.8,32.0,27.5,20.4,14.1,70,49,30,29.69,29.50,1,0,7,0.00
2013-3-17,42.6,36.7,30.2,21.0,14.1,5.6,58,40,23,30.10,29.65,4,1,12,0.00
2013-3-18,42.6,33.7,23.2,27.2,12.7,1.4,77,43,27,30.30,30.02,2,0,6,0.00
2013-3-19,40.5,36.0,31.8,37.2,32.4,27.0,88,86,77,30.02,29.41,4,2,9,0.89
2013-3-20,43.7,37.4,30.4,29.7,23.6,19.6,83,59,43,29.66,29.50,6,1,13,0.00
2013-3-21,41.9,36.1,30.0,29.6,25.0,21.4,81,65,47,29.65,29.42,2,0,7,0.00
2013-3-22,44.8,38.5,30.2,29.2,21.6,18.4,79,51,38,29.59,29.42,4,1,14,0.00
2013-3-23,46.6,40.0,32.0,29.5,21.8,18.9,70,49,35,29.63,29.53,7,2,16,0.00
2013-3-24,50.4,42.6,33.3,28.0,24.3,19.7,66,49,35,29.69,29.55,2,0,9,0.00
2013-3-25,49.1,40.5,33.8,34.3,28.8,24.9,81,64,41,29.59,29.31,7,2,16,0.03
2013-3-26,50.5,42.3,36.3,32.5,28.7,23.0,84,60,41,29.61,29.32,4,0,8,0.08
2013-3-27,56.5,46.8,32.4,29.2,25.0,20.9,64,44,30,29.69,29.58,4,0,12,0.00
2013-3-28,54.3,46.1,39.6,35.4,33.0,25.1,80,61,32,29.84,29.62,3,0,7,0.00
2013-3-29,61.7,51.3,40.1,38.3,33.2,29.6,73,51,34,29.93,29.81,2,0,7,0.00
2013-3-30,58.5,51.9,42.4,33.9,26.6,17.9,61,40,21,29.99,29.84,4,0,8,0.00
2013-3-31,61.0,48.9,33.1,44.0,32.5,22.9,86,55,32,29.97,29.57,4,0,10,0.11
2013-4-1,63.7,51.5,38.5,48.0,40.8,17.6,88,68,41,29.64,29.39,7,1,15,0.17
2013-4-2,48.9,40.5,32.4,24.1,17.3,10.9,55,39,27,29.81,29.64,7,1,13,0.00
2013-4-3,48.0,41.0,32.7,21.5,16.4,13.6,50,37,28,29.99,29.77,6,2,14,0.00
2013-4-4,54.1,43.8,31.8,31.6,23.5,15.6,72,46,30,30.17,29.90,4,0,8,0.00
2013-4-5,58.8,48.1,40.1,40.6,32.4,21.9,73,57,29,29.90,29.51,4,0,13,0.00
2013-4-6,49.1,43.5,36.3,27.6,18.1,7.2,59,38,19,30.12,29.69,5,1,13,0.00
2013-4-7,56.7,45.2,30.6,42.5,33.2,21.5,80,64,39,30.17,29.86,5,1,14,0.00
2013-4-8,66.4,54.7,45.7,49.8,43.5,40.8,86,68,43,29.93,29.75,2,0,7,0.00
2013-4-9,75.6,60.4,48.6,57.2,45.6,40.3,88,62,34,29.93,29.73,5,1,14,0.00
2013-4-10,70.3,55.3,47.7,52.9,46.2,42.4,85,73,52,29.84,29.64,2,0,6,0.36
2013-4-11,57.0,52.2,48.2,47.4,42.5,33.8,88,71,54,29.94,29.64,3,1,8,0.03
2013-4-12,48.4,43.3,40.6,38.4,35.6,30.6,89,75,59,29.95,29.55,6,2,15,0.56
2013-4-13,57.7,47.5,39.7,43.7,38.1,35.1,87,71,51,29.76,29.52,4,1,12,0.00
2013-4-14,59.9,50.3,43.7,44.0,34.6,26.4,78,56,36,30.03,29.73,4,1,10,0.00
2013-4-15,59.9,49.0,38.3,40.2,34.6,27.2,79,59,40,30.24,30.02,1,0,6,0.00
2013-4-16,63.0,53.2,38.8,49.2,43.5,33.8,83,71,47,30.26,29.95,5,1,13,0.00
2013-4-17,68.5,59.2,47.3,51.9,43.9,32.9,84,60,27,30.14,29.91,3,0,7,0.00
2013-4-18,65.7,54.6,40.6,46.1,40.2,35.6,82,61,37,30.27,29.99,3,0,7,0.00
2013-4-19,72.0,60.6,52.9,62.1,55.6,45.9,92,84,69,29.99,29.56,5,1,13,0.03
2013-4-20,63.0,57.6,49.3,60.4,45.2,29.3,92,66,41,30.02,29.48,6,0,12,0.50
2013-4-21,55.2,48.0,37.6,33.2,26.6,21.0,68,44,29,30.48,30.02,4,1,13,0.00
2013-4-22,55.6,47.3,36.9,37.8,31.7,26.3,77,57,34,30.57,30.37,6,2,12,0.00
2013-4-23,45.9,43.7,41.7,41.6,38.7,31.9,88,82,67,30.37,29.88,4,2,14,0.00
2013-4-24,67.8,54.0,44.1,52.5,45.3,40.4,88,74,52,29.88,29.72,4,1,10,0.00
2013-4-25,66.4,56.8,47.3,51.2,41.1,28.2,87,59,25,30.07,29.70,4,0,14,0.03
2013-4-26,68.2,55.6,42.8,45.5,38.1,28.8,72,53,38,30.24,30.06,4,0,7,0.00
2013-4-27,65.8,53.8,40.6,47.5,39.7,35.3,82,61,40,30.26,30.14,2,0,9,0.00
2013-4-28,70.2,56.4,40.1,50.6,40.1,31.8,81,57,35,30.19,30.06,4,0,7,0.00
2013-4-29,66.7,56.8,48.2,52.2,41.9,32.3,85,61,33,30.15,30.04,3,0,7,0.00
2013-4-30,71.1,57.8,42.3,46.6,38.2,32.5,81,51,30,30.20,30.06,2,0,8,0.00
2013-5-1,70.7,57.5,40.6,49.8,42.1,32.6,76,59,33,30.32,30.16,4,0,7,0.00
2013-5-2,75.7,61.2,44.2,52.4,43.7,37.8,83,56,32,30.30,30.20,4,0,8,0.00
2013-5-3,62.4,54.8,45.1,44.9,41.2,37.5,77,61,47,30.35,30.17,4,2,12,0.00
2013-5-4,64.9,54.3,43.2,46.5,38.5,31.8,80,57,32,30.19,30.11,5,2,14,0.00
2013-5-5,64.6,53.7,39.9,45.2,41.0,35.2,85,64,44,30.15,30.06,4,1,8,0.00
2013-5-6,70.0,56.6,47.1,53.4,46.7,41.1,84,70,51,30.16,30.00,2,0,6,0.00
2013-5-7,77.7,63.3,49.3,62.1,53.8,45.3,87,73,48,30.05,29.96,2,0,6,0.00
2013-5-8,75.0,64.4,55.0,64.0,58.1,50.9,89,80,65,30.06,29.88,4,0,9,0.03
2013-5-9,71.8,62.6,58.6,63.1,58.0,54.8,90,85,70,29.88,29.70,0,0,5,0.14
2013-5-10,80.8,69.8,56.5,64.1,58.1,53.0,89,68,50,29.83,29.70,1,0,6,0.00
2013-5-11,72.5,63.2,58.8,62.7,58.2,54.2,90,84,69,29.78,29.54,3,0,7,0.08
2013-5-12,73.9,63.4,54.5,64.2,53.7,32.9,91,73,44,29.66,29.47,4,0,10,0.00
2013-5-13,70.3,58.5,46.2,41.4,34.5,28.1,63,41,31,29.85,29.66,2,0,5,0.00
2013-5-14,64.9,55.4,44.1,38.7,32.8,29.7,63,43,31,29.92,29.80,1,0,5,0.00
2013-5-15,71.4,57.6,41.4,52.6,44.2,33.1,83,63,32,29.93,29.52,74,0,45,0.00
2013-5-16,81.5,67.6,52.0,58.2,49.8,43.8,86,57,27,29.63,29.49,2,0,8,0.00
2013-5-17,74.3,65.0,53.1,50.6,44.8,41.1,72,50,34,30.05,29.63,2,0,9,0.00
2013-5-18,79.9,64.6,46.9,54.6,48.2,41.1,80,58,35,30.17,30.04,0,0,4,0.00
2013-5-19,78.1,63.9,50.7,56.3,51.7,44.4,87,67,44,30.21,30.04,1,0,5,0.03
2013-5-20,82.0,69.1,58.5,68.8,62.2,54.6,90,79,61,30.04,29.77,0,0,1,0.08
2013-5-21,87.3,71.5,55.9,71.2,62.5,51.5,88,74,56,29.84,29.71,4,0,8,0.00
2013-5-22,77.2,63.9,54.7,66.1,57.6,50.6,88,80,67,29.83,29.72,2,0,8,0.00
2013-5-23,79.3,68.6,62.6,69.5,63.5,58.9,90,84,70,29.82,29.68,1,0,7,0.03
2013-5-24,71.4,64.3,53.4,65.8,60.3,48.8,91,87,79,29.68,29.52,2,0,5,0.47
2013-5-25,57.0,51.7,45.1,51.7,47.2,39.3,89,85,78,29.63,29.55,2,0,11,0.30
2013-5-26,64.6,53.6,44.8,46.6,41.7,38.0,81,65,44,29.94,29.55,6,1,14,0.00
2013-5-27,75.7,64.2,45.3,49.1,42.5,37.3,80,49,28,30.02,29.91,4,0,10,0.00
2013-5-28,78.3,64.9,47.8,56.9,50.1,41.6,81,60,38,30.09,29.97,0,0,2,0.00
2013-5-29,74.7,65.4,59.5,65.0,59.7,55.3,89,82,70,30.02,29.83,0,0,4,0.50
2013-5-30,90.5,77.5,63.0,75.3,67.4,59.7,90,72,53,29.99,29.86,0,0,0,0.19
2013-5-31,95.5,84.1,66.0,75.4,68.1,61.2,85,60,44,29.99,29.81,0,0,3,0.00
2013-6-1,91.9,78.9,66.2,74.0,66.0,60.9,83,66,50,29.88,29.74,0,0,1,0.00
2013-6-2,84.6,75.0,66.0,69.0,64.9,61.2,86,72,57,29.77,29.65,1,0,7,0.00
2013-6-3,75.7,68.9,65.7,70.7,64.5,60.5,90,86,81,29.72,29.63,0,0,1,0.47
2013-6-4,77.4,68.9,56.5,60.7,47.6,40.9,81,48,36,29.89,29.65,4,0,16,0.00
2013-6-5,79.0,66.9,52.0,54.6,50.2,45.5,81,57,33,30.06,29.89,2,0,6,0.00
2013-6-6,78.3,67.4,55.0,62.1,54.5,49.3,83,65,46,30.07,29.91,0,0,4,0.00
2013-6-7,63.0,59.8,57.0,59.3,55.5,52.8,91,86,71,29.91,29.59,4,1,8,2.49
2013-6-8,80.2,66.9,56.5,67.1,59.8,53.9,92,79,61,29.83,29.40,2,0,8,1.50
2013-6-9,84.6,74.4,59.9,64.2,59.2,55.6,86,62,43,30.01,29.83,2,0,6,0.00
2013-6-10,74.7,66.9,59.0,64.6,59.2,54.0,88,77,60,30.07,29.82,2,0,6,0.94
2013-6-11,77.5,66.5,60.3,68.7,62.1,56.9,91,86,70,29.82,29.39,2,0,5,0.75
2013-6-12,78.8,68.3,60.4,61.9,55.4,51.8,89,65,50,29.65,29.42,5,1,15,0.00
2013-6-13,72.3,61.4,54.7,60.2,55.0,49.3,89,80,62,29.70,29.44,3,0,8,0.17
2013-6-14,71.4,62.0,54.1,56.5,52.9,48.0,90,73,51,29.62,29.42,5,1,13,1.35
2013-6-15,82.9,72.7,58.8,56.5,51.6,47.2,78,50,30,29.81,29.60,2,0,7,0.00
2013-6-16,85.5,71.5,56.5,63.1,58.3,50.6,82,65,41,29.83,29.59,0,0,2,0.00
2013-6-17,90.9,76.9,64.2,70.3,63.7,57.1,88,66,39,29.77,29.63,3,0,7,0.00
2013-6-18,81.5,68.3,60.4,65.6,60.4,56.1,89,77,54,29.82,29.71,5,0,9,0.03
2013-6-19,85.1,67.0,57.4,60.2,55.7,51.8,90,69,38,29.97,29.70,3,0,7,0.06
2013-6-20,89.4,69.3,55.8,60.1,55.7,51.3,86,64,35,30.13,29.97,0,0,4,0.00
2013-6-21,88.9,72.3,61.0,66.5,59.6,54.4,83,65,46,30.15,30.05,0,0,4,0.00
2013-6-22,82.9,72.7,64.4,65.5,59.1,53.9,85,63,50,30.12,29.99,0,0,3,0.00
2013-6-23,87.6,76.2,66.4,70.8,66.3,61.4,85,73,51,30.05,29.87,1,0,4,0.00
2013-6-24,96.1,81.7,72.1,74.0,70.2,65.9,88,70,45,29.89,29.73,5,0,12,0.00
2013-6-25,91.8,79.9,70.2,73.3,68.8,64.8,84,70,46,29.79,29.58,1,0,6,0.00
2013-6-26,89.2,79.7,73.0,72.6,69.9,67.2,86,73,50,29.67,29.55,3,0,8,0.00
2013-6-27,74.7,71.0,67.5,69.8,66.7,64.1,90,87,83,29.70,29.58,2,0,5,0.00
2013-6-28,80.1,72.2,67.3,73.9,68.9,64.2,94,90,75,29.58,29.39,2,0,5,0.44
2013-6-29,82.2,74.3,70.2,71.8,69.2,67.7,93,85,68,29.59,29.36,0,0,3,0.00
2013-6-30,81.7,74.4,70.7,73.2,69.4,67.6,92,85,68,29.81,29.58,0,0,0,0.03
2013-7-1,80.1,74.1,71.1,74.4,70.9,68.6,93,90,80,29.93,29.76,0,0,2,0.03
2013-7-2,88.5,76.4,72.7,75.9,71.8,70.0,93,86,66,30.06,29.91,0,0,0,0.00
2013-7-3,93.7,79.5,72.1,75.7,71.6,69.0,90,78,55,30.12,29.99,1,0,4,0.00
2013-7-4,99.5,83.8,75.2,78.7,73.5,71.1,89,73,51,30.11,29.96,0,0,1,0.00
2013-7-5,100.2,84.7,75.9,78.0,73.6,70.7,84,70,47,30.06,29.89,0,0,1,0.00
2013-7-6,100.9,85.6,75.7,75.0,72.6,70.4,84,67,42,29.97,29.81,1,0,5,0.00
2013-7-7,94.6,84.5,76.8,78.4,73.2,68.9,84,70,52,29.91,29.73,0,0,3,0.00
2013-7-8,97.0,83.4,72.7,74.7,71.2,66.7,86,68,45,29.88,29.75,2,0,12,0.00
2013-7-9,89.4,74.9,69.1,71.3,68.1,65.6,89,80,55,29.99,29.85,1,0,6,0.00
2013-7-10,85.5,77.2,72.3,75.5,71.8,68.1,89,84,68,29.89,29.65,1,0,5,0.00
2013-7-11,79.0,76.1,71.2,74.9,72.5,68.3,93,88,84,29.77,29.64,1,0,5,0.69
2013-7-12,79.3,73.5,68.2,70.2,65.4,60.7,89,76,63,30.00,29.75,4,2,10,0.00
2013-7-13,80.4,73.3,67.6,74.8,68.9,62.8,91,86,77,30.17,30.00,1,0,5,0.00
2013-7-14,99.5,83.2,73.4,75.5,72.5,68.5,92,73,44,30.18,30.01,2,0,5,0.00
2013-7-15,102.6,87.0,76.5,76.3,72.9,69.4,87,64,45,30.10,29.93,1,0,5,0.00
2013-7-16,97.3,85.0,75.9,74.1,70.4,66.6,84,63,42,30.03,29.91,3,0,7,0.00
2013-7-17,95.5,82.7,73.4,74.0,70.9,68.5,87,69,47,30.06,29.85,0,0,4,0.00
2013-7-18,97.0,86.2,76.8,75.8,73.0,69.2,79,66,49,29.90,29.77,1,0,4,0.00
2013-7-19,98.4,87.3,77.5,78.8,75.2,73.0,87,69,49,29.79,29.61,2,0,7,0.00
2013-7-20,96.3,84.7,74.5,77.7,74.9,71.1,93,74,49,29.65,29.54,3,0,12,0.11
2013-7-21,90.7,77.2,70.0,72.5,68.7,65.7,93,77,51,29.85,29.65,0,0,0,0.33
2013-7-22,87.6,78.1,69.8,71.3,69.4,66.1,88,75,55,29.89,29.70,2,0,6,0.00
2013-7-23,88.7,78.4,73.9,76.5,72.7,68.9,92,83,64,29.70,29.43,2,0,7,0.06
2013-7-24,95.2,80.5,73.4,72.6,68.3,60.6,90,68,40,29.75,29.42,1,0,7,0.00
2013-7-25,74.5,64.6,60.8,60.6,57.0,51.6,93,77,59,29.93,29.74,3,1,9,0.58
2013-7-26,72.7,65.7,61.3,67.0,62.7,59.3,93,90,79,29.86,29.77,2,0,7,0.36
2013-7-27,92.7,74.1,64.8,71.5,66.6,61.8,92,78,48,29.95,29.82,0,0,0,0.00
2013-7-28,84.7,74.7,69.3,72.9,68.5,66.3,91,82,64,29.88,29.80,1,0,4,0.00
2013-7-29,94.6,77.3,71.4,75.7,70.6,67.4,90,81,56,29.93,29.81,1,0,5,0.00
2013-7-30,87.1,78.2,67.1,68.9,61.0,57.2,87,57,41,29.99,29.86,3,0,9,0.00
2013-7-31,87.4,76.7,63.0,65.8,61.9,57.0,82,62,45,30.01,29.87,2,1,5,0.00
2013-8-1,88.3,75.6,66.6,71.7,64.2,61.0,87,69,46,29.90,29.72,3,1,7,0.00
2013-8-2,86.0,75.8,67.3,71.7,65.1,61.8,90,71,48,29.74,29.63,4,1,9,0.06
2013-8-3,80.1,73.9,69.3,67.4,64.6,61.6,85,73,62,29.75,29.66,4,1,12,0.00
2013-8-4,86.2,75.7,62.2,62.4,58.0,54.4,79,56,38,29.73,29.65,5,2,9,0.00
2013-8-5,81.1,71.7,61.0,58.3,51.4,44.4,74,51,31,29.88,29.73,5,2,12,0.00
2013-8-6,84.0,71.1,54.7,60.4,53.7,49.0,82,58,33,30.02,29.87,3,1,6,0.00
2013-8-7,83.5,71.3,58.6,66.8,57.7,50.5,85,65,39,30.06,29.97,3,1,8,0.00
2013-8-8,83.3,75.2,68.0,71.5,66.9,59.4,86,76,65,29.97,29.88,3,1,6,0.00
2013-8-9,75.2,74.3,73.6,72.7,70.5,69.5,92,88,86,29.89,29.64,2,0,9,1.50
2013-8-10,86.9,78.7,68.7,71.8,63.9,50.7,92,63,44,29.87,29.64,5,2,9,0.00
2013-8-11,84.7,74.2,58.8,60.6,55.9,49.6,78,54,36,29.99,29.86,4,1,7,0.00
2013-8-12,82.9,73.9,65.1,69.3,64.4,59.4,85,73,54,29.92,29.76,2,0,5,0.00
2013-8-13,74.7,70.3,65.8,69.3,65.0,62.0,89,84,70,29.77,29.55,2,0,5,0.00
2013-8-14,79.3,71.8,64.8,64.1,56.5,53.0,89,61,43,29.81,29.53,7,3,13,0.00
2013-8-15,82.8,72.0,58.8,58.5,53.8,46.4,77,55,30,29.98,29.81,4,1,8,0.00
2013-8-16,85.8,72.6,57.9,62.6,57.6,52.5,84,61,37,30.05,29.94,3,1,6,0.00
2013-8-17,85.5,74.9,58.6,62.1,59.2,53.4,84,60,40,30.15,30.03,2,0,5,0.00
2013-8-18,82.9,70.8,61.2,65.7,60.1,56.4,86,70,44,30.16,29.93,2,0,4,0.00
2013-8-19,86.2,75.1,61.2,66.8,61.3,56.0,83,64,43,29.94,29.81,4,1,9,0.00
2013-8-20,89.2,78.5,65.1,67.1,63.0,60.2,84,61,40,29.97,29.82,3,1,8,0.00
2013-8-21,91.6,79.0,63.9,69.0,64.6,59.3,86,64,41,30.04,29.87,2,0,6,0.00
2013-8-22,87.3,76.1,68.7,74.2,69.1,62.7,87,80,64,29.91,29.69,3,0,5,0.28
2013-8-23,83.5,76.1,70.2,69.1,63.6,58.9,89,67,49,29.88,29.67,4,1,9,0.00
2013-8-24,57.0,56.6,56.1,51.6,51.3,51.0,83,82,81,30.14,30.13,0,0,0,0.00
2013-8-25,84.4,74.7,54.9,62.3,56.6,49.8,84,55,35,30.24,30.04,2,1,5,0.00
2013-8-26,81.0,73.1,66.9,68.1,63.3,58.0,86,72,63,30.04,29.76,3,1,8,0.11
2013-8-27,80.8,73.4,68.4,71.3,68.0,64.2,91,84,65,29.76,29.67,3,0,8,0.83
2013-8-28,85.6,75.0,64.2,72.1,66.5,60.6,89,76,54,29.81,29.69,2,0,5,0.00
2013-8-29,84.7,66.9,63.5,65.7,62.2,58.2,89,85,80,29.92,29.77,4,2,9,0.00
2013-8-30,80.4,70.5,62.1,69.9,63.8,57.2,89,80,68,29.86,29.69,2,1,7,0.00
2013-8-31,82.9,76.0,70.0,73.9,70.5,66.6,91,83,72,29.75,29.66,2,0,5,0.00
2013-9-1,82.6,75.6,71.8,75.7,71.5,68.7,93,87,78,29.77,29.66,3,0,5,0.55
2013-9-2,78.6,74.1,70.5,74.7,71.1,67.4,92,90,86,29.73,29.57,3,0,6,1.02
2013-9-3,86.0,74.7,66.4,74.9,69.9,60.9,92,85,69,29.69,29.54,3,0,5,0.11
2013-9-4,80.4,72.1,60.1,64.7,60.3,56.2,88,68,51,29.81,29.67,4,2,9,0.00
2013-9-5,74.3,66.9,57.6,64.8,58.8,52.4,85,76,54,29.95,29.71,4,1,7,0.00
2013-9-6,72.3,61.9,50.0,52.6,46.7,42.9,85,60,39,30.11,29.92,3,1,7,0.00
2013-9-7,77.5,67.2,53.2,57.4,53.0,46.6,81,62,44,29.94,29.71,4,1,9,0.00
2013-9-8,79.7,69.6,56.8,65.5,55.5,42.0,85,62,41,29.90,29.61,5,2,12,0.00
2013-9-9,71.2,61.6,47.1,53.7,47.6,41.3,81,61,45,30.10,29.78,2,0,6,0.00
2013-9-10,75.9,68.6,59.7,68.8,62.4,51.6,89,81,74,30.01,29.88,3,1,9,0.00
2013-9-11,90.1,78.6,69.6,78.3,71.6,66.9,92,80,66,29.99,29.83,2,0,4,0.00
2013-9-12,83.5,76.0,70.2,73.5,70.0,66.9,91,82,71,29.83,29.53,3,1,7,0.41
2013-9-13,80.1,72.4,64.4,70.9,66.2,57.4,91,82,67,29.60,29.44,2,0,5,0.08
2013-9-14,72.5,66.1,57.7,58.1,54.4,50.9,80,67,56,29.89,29.60,4,1,9,0.00
2013-9-15,71.1,63.1,52.2,57.0,52.4,47.2,84,69,54,30.05,29.88,3,1,6,0.00
2013-9-16,67.1,60.6,52.9,58.6,53.3,39.4,88,78,59,30.04,29.85,3,0,8,0.00
2013-9-17,62.1,54.2,45.3,43.6,39.3,35.0,81,59,37,30.27,30.04,4,1,9,0.00
2013-9-18,70.7,58.6,42.8,53.6,46.2,38.3,85,65,44,30.17,29.97,2,0,5,0.00
2013-9-19,74.8,64.4,50.7,59.6,53.5,46.1,84,69,53,30.01,29.88,2,0,5,0.00
2013-9-20,76.5,64.9,52.0,60.3,55.6,47.8,88,73,52,29.96,29.85,2,0,4,0.00
2013-9-21,75.7,67.6,57.4,65.9,61.8,54.2,90,82,69,29.87,29.57,3,1,6,0.00
2013-9-22,72.9,67.1,56.1,66.9,58.6,46.6,90,75,54,29.66,29.48,5,2,9,0.08
2013-9-23,60.8,54.0,50.2,46.7,43.3,40.0,73,67,50,29.82,29.65,3,2,8,0.00
2013-9-24,66.4,59.1,46.8,48.1,44.9,39.8,77,60,47,29.83,29.65,3,2,9,0.00
2013-9-25,68.9,59.4,47.1,53.0,48.2,42.5,84,68,53,29.80,29.69,3,1,7,0.00
2013-9-26,66.2,60.3,54.7,50.7,49.2,46.4,80,68,53,29.94,29.79,3,1,7,0.00
2013-9-27,67.5,60.3,51.1,54.3,50.9,45.8,83,71,58,30.08,29.92,4,1,8,0.00
2013-9-28,72.9,60.4,47.8,56.9,50.6,43.4,86,72,50,30.18,30.05,3,1,7,0.00
2013-9-29,68.0,57.8,48.4,54.6,49.9,44.7,89,76,50,30.09,29.92,2,0,7,0.00
2013-9-30,68.5,59.9,51.8,55.4,51.4,46.5,90,75,51,29.94,29.78,2,1,6,0.00
2013-10-1,75.7,62.0,46.9,56.0,50.8,42.8,87,69,43,29.83,29.69,3,1,8,0.00
2013-10-2,78.4,66.9,53.1,62.7,57.2,49.0,86,72,55,29.81,29.71,5,1,13,0.00
2013-10-3,77.2,65.4,53.6,58.6,53.7,49.2,86,68,43,29.97,29.80,2,0,5,0.00
2013-10-4,69.8,59.3,52.9,59.5,54.3,48.7,89,84,63,29.94,29.86,2,0,5,0.06
2013-10-5,70.7,64.0,59.4,62.3,58.7,56.1,90,83,72,29.97,29.87,2,0,5,0.11
2013-10-6,63.0,61.0,58.8,58.2,56.5,54.9,90,85,79,30.02,29.92,3,1,6,0.00
2013-10-7,76.1,67.9,59.0,70.0,64.2,56.1,94,88,79,29.93,29.69,4,1,10,0.00
2013-10-8,67.5,61.2,51.6,59.3,47.7,43.1,78,62,42,30.15,29.75,4,2,9,0.00
2013-10-9,64.2,55.2,47.3,47.7,44.5,41.3,83,68,50,30.29,30.14,4,1,10,0.00
2013-10-10,66.7,57.5,50.0,55.8,51.1,45.2,86,80,66,30.16,29.95,3,1,7,0.00
2013-10-11,69.4,61.3,54.3,58.3,53.6,45.5,88,76,61,29.99,29.90,4,2,10,0.00
2013-10-12,67.3,59.2,53.8,57.2,52.4,47.8,86,78,67,30.17,29.93,5,2,10,0.00
2013-10-13,63.5,55.0,45.0,50.9,47.1,40.0,86,75,59,30.27,30.13,4,1,9,0.00
2013-10-14,62.4,51.4,39.2,49.7,43.5,34.9,85,75,46,30.24,30.07,2,0,5,0.00
2013-10-15,67.8,55.9,44.2,52.4,47.5,40.3,87,75,51,30.11,29.98,2,0,5,0.00
2013-10-16,64.9,56.8,48.9,57.2,52.0,44.9,90,84,75,29.98,29.74,3,0,7,0.00
2013-10-17,71.2,62.4,54.9,62.8,57.8,51.4,92,85,73,29.76,29.57,3,1,6,0.00
2013-10-18,65.7,61.2,50.9,61.1,53.2,44.4,92,76,57,29.75,29.46,6,2,12,0.00
2013-10-19,63.9,54.6,44.2,52.3,46.6,39.1,85,75,62,29.85,29.58,2,0,5,0.00
2013-10-20,59.0,54.7,45.3,54.2,43.8,36.7,90,68,47,29.86,29.51,5,2,12,0.00
2013-10-21,59.9,50.5,39.9,48.2,42.0,34.2,83,73,56,29.99,29.83,3,0,7,0.00
2013-10-22,63.9,54.6,45.7,55.8,48.6,41.6,90,80,68,29.83,29.53,3,1,6,0.00
2013-10-23,54.1,48.7,41.4,42.5,39.3,34.2,82,70,49,29.63,29.42,3,0,7,0.00
2013-10-24,54.9,47.9,42.3,38.0,33.2,28.7,75,58,40,29.73,29.47,5,2,13,0.00
2013-10-25,53.1,45.5,38.3,36.0,31.2,28.9,72,58,42,29.99,29.72,6,2,12,0.00
2013-10-26,55.6,46.1,34.3,39.4,34.3,28.4,81,65,43,30.02,29.69,5,2,16,0.00
2013-10-27,57.0,50.2,41.7,41.1,36.3,31.2,78,60,44,29.90,29.64,5,2,10,0.00
2013-10-28,59.5,46.9,34.2,38.0,33.3,27.4,82,61,44,30.14,29.89,6,2,14,0.00
2013-10-29,52.2,43.4,35.8,30.2,27.0,24.7,75,53,37,30.28,30.14,3,1,6,0.00
2013-10-30,56.5,46.3,35.8,45.5,38.9,28.6,81,75,65,30.17,29.99,3,0,7,0.00
2013-10-31,63.5,53.0,39.9,59.8,48.8,35.5,90,85,81,30.05,29.66,3,1,9,0.00
2013-11-1,69.6,64.6,60.3,64.0,59.3,54.1,92,83,71,29.66,29.38,5,3,18,0.06
2013-11-2,65.1,59.0,54.5,54.4,50.7,46.5,84,74,57,29.55,29.44,2,0,5,0.00
2013-11-3,55.6,44.6,36.3,47.1,32.2,18.4,77,62,43,30.20,29.54,3,1,9,0.00
2013-11-4,45.1,37.3,30.2,25.3,21.2,17.7,73,53,37,30.49,30.20,4,1,8,0.00
2013-11-5,50.4,39.4,28.6,34.1,28.5,22.3,78,66,41,30.55,30.32,3,0,5,0.00
2013-11-6,59.2,49.7,38.8,49.7,43.1,32.9,89,78,61,30.32,29.90,3,1,7,0.00
2013-11-7,65.3,56.2,43.7,61.4,52.1,35.6,93,86,73,29.90,29.50,4,2,12,0.39
2013-11-8,50.5,43.0,36.3,37.0,30.5,24.8,80,62,46,29.93,29.65,7,3,14,0.00
2013-11-9,48.2,41.4,33.4,35.7,28.0,25.4,73,60,42,30.08,29.85,4,1,9,0.00
2013-11-10,58.6,49.2,42.6,44.8,39.5,34.6,83,70,52,29.85,29.57,7,1,12,0.00
2013-11-11,53.4,47.1,40.5,40.4,32.5,28.1,72,57,43,29.99,29.71,7,3,16,0.00
2013-11-12,51.6,40.4,31.3,39.3,27.8,16.1,82,61,50,29.99,29.70,5,2,13,0.08
2013-11-13,39.4,32.8,27.5,18.0,16.3,13.4,62,51,38,30.14,29.98,4,2,13,0.00
2013-11-14,51.6,41.4,31.3,30.7,23.9,17.8,62,51,37,30.01,29.90,5,2,9,0.00
2013-11-15,59.2,46.7,37.0,39.4,31.5,20.5,84,57,33,30.08,29.92,2,1,7,0.00
2013-11-16,45.0,42.6,41.4,38.7,37.0,36.2,84,81,78,30.09,30.01,0,0,2,0.00
2013-11-17,59.0,53.1,38.5,57.0,48.8,34.4,93,86,73,30.11,29.68,2,0,4,0.66
2013-11-18,82.0,58.9,50.2,65.3,50.3,34.6,94,75,56,29.68,29.42,4,2,11,0.47
2013-11-19,50.2,43.5,34.9,34.6,25.6,19.4,57,49,40,30.06,29.50,7,4,17,0.00
2013-11-20,43.0,34.7,28.2,19.3,16.3,12.9,63,48,30,30.40,30.06,3,1,9,0.00
2013-11-21,47.3,36.9,25.7,34.2,24.2,16.6,70,60,45,30.46,30.20,2,0,4,0.00
2013-11-22,52.3,48.1,43.3,49.5,43.3,34.2,90,84,70,30.20,29.66,3,0,6,0.14
2013-11-23,50.9,44.1,33.4,47.1,29.3,15.8,88,57,35,29.78,29.62,8,4,18,0.00
2013-11-24,33.4,27.4,24.1,16.1,6.6,-0.6,52,41,28,29.99,29.62,10,6,20,0.00
2013-11-25,35.4,28.5,21.0,23.0,7.2,-0.8,62,41,25,30.21,29.99,6,2,13,0.00
2013-11-26,47.3,41.3,34.7,40.4,28.0,20.4,88,60,44,30.18,29.83,3,1,7,0.17
2013-11-27,60.6,53.3,39.7,58.6,50.9,35.0,93,91,83,29.83,29.08,7,3,18,2.24
2013-11-28,39.7,34.1,28.6,35.0,20.0,12.8,83,57,41,30.26,29.34,8,4,16,0.00
2013-11-29,37.8,32.4,26.4,18.8,14.9,5.9,56,48,37,30.52,30.25,4,1,8,0.00
2013-11-30,36.5,29.4,21.2,24.2,16.6,8.1,69,59,46,30.62,30.22,2,1,6,0.00
2013-12-1,46.6,40.0,33.3,43.8,35.4,24.0,90,84,69,30.22,29.81,2,0,5,0.89
2013-12-2,45.5,40.9,37.9,40.6,37.3,33.8,90,87,80,29.86,29.73,2,0,5,0.00
2013-12-3,50.4,42.0,38.1,38.6,35.5,32.6,89,78,57,29.79,29.69,3,1,7,0.00
2013-12-4,48.4,39.2,32.5,34.7,31.2,27.7,84,73,56,30.01,29.77,2,0,5,0.00
2013-12-5,54.0,46.6,35.6,51.7,43.0,30.6,92,87,82,30.02,29.75,2,0,6,0.00
2013-12-6,55.9,51.4,39.9,53.9,47.8,35.8,93,87,79,29.94,29.69,3,1,7,0.41
2013-12-7,43.0,38.1,33.4,36.2,30.3,23.7,88,74,58,30.25,29.89,5,2,10,0.25
2013-12-8,35.4,32.6,27.5,24.4,20.3,17.2,78,61,49,30.42,30.24,2,1,6,0.00
2013-12-9,41.9,36.8,30.4,39.2,33.1,19.7,90,86,60,30.27,29.70,4,1,8,0.14
2013-12-10,37.8,35.0,28.9,34.1,30.8,22.0,89,85,74,29.84,29.61,4,1,10,0.08
2013-12-11,34.7,29.8,25.5,24.5,21.5,19.3,80,71,64,30.12,29.84,5,2,12,0.00
2013-12-12,28.9,25.6,21.6,19.7,11.1,4.9,69,55,40,30.14,29.89,5,2,10,0.03
2013-12-13,33.6,27.1,20.3,19.0,13.6,8.6,67,57,46,30.13,29.82,7,3,14,0.00
2013-12-14,32.7,22.0,16.3,29.8,10.0,-0.7,89,61,38,30.40,29.73,4,2,9,0.00
2013-12-15,38.7,33.4,18.1,36.3,28.8,0.8,92,83,46,30.39,29.18,5,2,11,0.67
2013-12-16,31.1,28.4,22.5,23.4,16.2,10.5,79,60,46,30.02,29.57,6,3,16,0.00
2013-12-17,25.7,20.7,13.8,21.5,13.8,7.1,84,74,61,30.12,29.72,5,1,10,0.00
2013-12-18,35.6,29.2,22.1,23.5,21.0,16.9,82,72,57,29.92,29.64,5,2,10,0.08
2013-12-19,44.8,36.3,28.4,30.8,26.1,20.7,73,66,56,29.96,29.81,5,1,10,0.00
2013-12-20,50.5,41.1,32.4,40.1,33.6,26.9,82,75,62,29.95,29.77,2,0,6,0.00
2013-12-21,56.7,48.7,41.9,49.2,44.4,36.7,91,85,73,29.87,29.73,3,0,6,0.00
2013-12-22,62.2,56.0,45.9,59.0,52.4,41.0,93,88,82,29.81,29.65,4,2,14,0.00
2013-12-23,45.9,41.7,37.8,41.3,38.5,34.2,90,88,83,29.89,29.77,4,1,8,0.69
2013-12-24,43.3,36.9,31.1,40.0,26.0,17.8,88,65,45,30.02,29.87,4,2,9,0.09
2013-12-25,31.1,24.1,21.0,19.2,8.3,4.1,64,51,40,30.34,30.01,7,2,14,0.00
2013-12-26,39.0,31.2,21.9,34.0,24.5,11.6,83,76,64,30.28,29.87,4,1,9,0.03
2013-12-27,39.9,32.8,28.2,25.6,22.5,20.7,79,66,49,30.15,30.01,4,1,9,0.00
2013-12-28,49.3,38.3,30.4,32.6,26.9,22.1,80,65,47,30.05,29.83,5,1,10,0.00
2013-12-29,46.0,40.8,33.8,41.6,36.1,27.0,91,83,73,29.85,29.18,5,1,10,1.30
2013-12-30,43.0,36.3,24.6,38.7,26.7,11.9,89,70,45,29.96,29.34,7,2,16,0.00
2013-12-31,30.4,25.1,19.9,16.9,11.8,4.9,69,57,46,30.11,29.87,4,1,8,0.00
2014-1-1,32.2,27.5,22.5,16.2,11.8,8.4,68,51,42,30.24,29.89,4,2,10,0.00
2014-1-2,29.3,22.5,8.8,25.1,17.0,3.5,86,80,55,30.16,29.57,5,2,13,0.00